Weather History for Caro, MI

Change the Weather History Date:

Monday, March 25, 2013

  Actual Average (KMBS) Record (KMBS)
Temperature  
Mean Temperature 35 °F 37 °F  
Max Temperature 38 °F 46 °F 70 °F (2012)
Min Temperature 32 °F 28 °F 12 °F (2011)
Degree Days  
Heating Degree Days 30    
Month to date heating degree days  
Since 1 July heating degree days  
Cooling Degree Days 0    
Month to date cooling degree days  
Year to date cooling degree days  
Moisture  
Dew Point 26 °F    
Average Humidity 72    
Maximum Humidity 80    
Minimum Humidity 62    
Precipitation  
Precipitation 0.00 in 0.06 in 0.49 in (1997)
Month to date precipitation 1.63  
Year to date precipitation 4.95  
Snow  
Snow 0.00 in - - ()
Month to date snowfall  
Since 1 July snowfall  
Snow Depth -    
Sea Level Pressure  
Sea Level Pressure 29.73 in    
Wind  
Wind Speed 10 mph (NNE)    
Max Wind Speed 18 mph    
Max Gust Speed 28 mph    
Visibility 10 miles    
Events      
T = Trace of Precipitation, MM = Missing Value Source: NWS Daily Summary

Daily Weather History Graph

Daily Weather History Graph

Search for Another Location

Airport:

Trip Planner

Search our weather history database for the weather conditions in past years. The results will help you decide how hot, cold, wet, or windy it might be!

Date:

Astronomy

Mar. 25, 2013 Rise Set
Actual Time 7:27 AM EDT 7:52 PM EDT
Civil Twilight 6:58 AM EDT 8:21 PM EDT
Nautical Twilight 6:25 AM EDT 8:54 PM EDT
Astronomical Twilight 5:50 AM EDT 9:29 PM EDT
Moon 6:21 PM EDT (3/25) 6:12 AM EDT (3/25)
Length of Visible Light 13h 22m
Length of Day
12h 24m
Waxing Gibbous, 96% of the Moon is Illuminated
Mar 25
Waxing Gibbous
Mar 27
Full
Apr 3
Last Quarter
Apr 10
New
Apr 18
First Quarter

Hourly Weather History & Observations

Time (EDT) Temp. Windchill Dew Point Humidity Pressure Visibility Wind Dir Wind Speed Gust Speed Precip Events Conditions
12:15 AM 32.0 °F 24.8 °F 23.4 °F 70% 29.70 in 10.0 mi NE 8.1 mph - N/A   Clear
12:34 AM 32.0 °F 25.6 °F 23.5 °F 71% 29.70 in 10.0 mi NE 6.9 mph - N/A   Clear
12:54 AM 32.0 °F 24.8 °F 23.9 °F 72% 29.70 in 10.0 mi NE 8.1 mph - N/A   Clear
1:15 AM 32.0 °F 24.8 °F 24.4 °F 74% 29.70 in 10.0 mi NE 8.1 mph - N/A   Clear
1:34 AM 32.0 °F 25.6 °F 24.8 °F 75% 29.69 in 10.0 mi NE 6.9 mph - N/A   Scattered Clouds
1:54 AM 32.2 °F 24.4 °F 25.7 °F 77% 29.69 in 10.0 mi NE 9.2 mph - N/A   Mostly Cloudy
2:14 AM 32.4 °F 26.0 °F 26.1 °F 78% 29.69 in 10.0 mi NE 6.9 mph - N/A   Overcast
2:34 AM 32.5 °F 24.8 °F 25.9 °F 76% 29.68 in 10.0 mi NE 9.2 mph - N/A   Overcast
2:54 AM 32.4 °F 25.3 °F 25.9 °F 77% 29.68 in 10.0 mi NE 8.1 mph - N/A   Mostly Cloudy
3:14 AM 32.2 °F 25.0 °F 25.7 °F 77% 29.67 in 10.0 mi NE 8.1 mph - N/A   Mostly Cloudy
3:35 AM 32.0 °F 25.6 °F 26.1 °F 79% 29.67 in 10.0 mi NE 6.9 mph - N/A   Scattered Clouds
3:54 AM 32.0 °F 24.2 °F 26.2 °F 79% 29.66 in 10.0 mi NE 9.2 mph 16.1 mph N/A   Clear
4:14 AM 32.0 °F 24.8 °F 26.4 °F 80% 29.66 in 10.0 mi NNE 8.1 mph - N/A   Clear
4:35 AM 32.0 °F 24.2 °F 26.2 °F 79% 29.66 in 10.0 mi NE 9.2 mph 17.3 mph N/A   Mostly Cloudy
4:54 AM 32.0 °F 24.2 °F 25.7 °F 78% 29.66 in 10.0 mi NE 9.2 mph 17.3 mph N/A   Mostly Cloudy
5:14 AM 32.0 °F 23.6 °F 24.8 °F 75% 29.66 in 10.0 mi NE 10.4 mph 16.1 mph N/A   Scattered Clouds
5:35 AM 32.0 °F 23.6 °F 23.9 °F 72% 29.66 in 10.0 mi NE 10.4 mph 18.4 mph N/A   Clear
5:54 AM 32.0 °F 24.2 °F 23.7 °F 71% 29.65 in 10.0 mi NE 9.2 mph - N/A   Clear
6:14 AM 32.0 °F 24.8 °F 23.7 °F 71% 29.65 in 10.0 mi NE 8.1 mph - N/A   Scattered Clouds
6:34 AM 32.0 °F 24.2 °F 23.9 °F 72% 29.65 in 10.0 mi NNE 9.2 mph - N/A   Mostly Cloudy
6:54 AM 32.0 °F 24.2 °F 24.1 °F 73% 29.65 in 10.0 mi NE 9.2 mph 16.1 mph N/A   Overcast
7:15 AM 32.2 °F 23.2 °F 23.9 °F 72% 29.65 in 10.0 mi NE 11.5 mph 18.4 mph N/A   Overcast
7:34 AM 32.2 °F 25.0 °F 23.9 °F 72% 29.66 in 10.0 mi NNE 8.1 mph - N/A   Overcast
7:54 AM 32.7 °F 25.0 °F 25.3 °F 74% 29.66 in 10.0 mi NNE 9.2 mph - N/A   Overcast
8:15 AM 33.3 °F 25.1 °F 25.3 °F 73% 29.67 in 10.0 mi NNE 10.4 mph 17.3 mph N/A   Overcast
8:34 AM 33.8 °F 25.8 °F 24.4 °F 69% 29.67 in 10.0 mi NNE 10.4 mph 16.1 mph N/A   Overcast
8:54 AM 34.0 °F 25.5 °F 23.7 °F 66% 29.67 in 10.0 mi NNE 11.5 mph 18.4 mph N/A   Overcast
9:14 AM 34.2 °F 26.2 °F 23.9 °F 66% 29.67 in 10.0 mi NNE 10.4 mph 17.3 mph N/A   Overcast
9:34 AM 34.0 °F 24.6 °F 24.8 °F 69% 29.68 in 10.0 mi NNE 13.8 mph 19.6 mph N/A   Overcast
9:55 AM 34.0 °F 24.2 °F 25.3 °F 71% 29.68 in 10.0 mi NNE 15.0 mph 21.9 mph N/A   Overcast
10:14 AM 34.3 °F 24.6 °F 25.5 °F 70% 29.68 in 10.0 mi NNE 15.0 mph 20.7 mph N/A   Overcast
10:34 AM 34.7 °F 26.4 °F 24.3 °F 66% 29.69 in 10.0 mi NE 11.5 mph 21.9 mph N/A   Overcast
10:55 AM 34.7 °F 25.1 °F 24.1 °F 65% 29.69 in 10.0 mi NNE 15.0 mph 25.3 mph N/A   Overcast
11:14 AM 34.9 °F 25.3 °F 23.4 °F 63% 29.69 in 10.0 mi NNE 15.0 mph 19.6 mph N/A   Overcast
11:34 AM 34.9 °F 27.1 °F 23.2 °F 62% 29.70 in 10.0 mi NNE 10.4 mph 19.6 mph N/A   Overcast
11:55 AM 34.7 °F 25.9 °F 23.9 °F 65% 29.70 in 10.0 mi NE 12.7 mph 21.9 mph N/A   Overcast
12:14 PM 34.7 °F 26.9 °F 23.9 °F 65% 29.70 in 10.0 mi NNE 10.4 mph 18.4 mph N/A   Overcast
12:34 PM 35.6 °F 28.0 °F 25.5 °F 67% 29.70 in 10.0 mi NNE 10.4 mph - N/A   Overcast
12:54 PM 36.0 °F 29.0 °F 27.3 °F 71% 29.70 in 10.0 mi NNE 9.2 mph 18.4 mph N/A   Overcast
1:14 PM 36.9 °F 29.6 °F 27.1 °F 68% 29.71 in 10.0 mi NNE 10.4 mph 20.7 mph N/A   Overcast
1:35 PM 37.2 °F 30.0 °F 27.0 °F 66% 29.71 in 10.0 mi NNE 10.4 mph 17.3 mph N/A   Overcast
1:54 PM 37.4 °F 28.2 °F 26.6 °F 65% 29.71 in 10.0 mi North 16.1 mph 23.0 mph N/A   Overcast
2:14 PM 37.4 °F 28.9 °F 27.0 °F 66% 29.71 in 10.0 mi North 13.8 mph 20.7 mph N/A   Overcast
2:34 PM 38.1 °F 28.4 °F 29.3 °F 71% 29.71 in 10.0 mi North 18.4 mph 21.9 mph N/A   Overcast
2:54 PM 38.3 °F 28.7 °F 29.5 °F 71% 29.72 in 10.0 mi North 18.4 mph 24.2 mph N/A   Overcast
3:15 PM 38.3 °F 29.0 °F 29.3 °F 70% 29.72 in 10.0 mi North 17.3 mph 27.6 mph N/A   Overcast
3:34 PM 38.3 °F 30.5 °F 29.1 °F 70% 29.73 in 10.0 mi NNE 12.7 mph 26.5 mph N/A   Overcast
3:54 PM 37.9 °F 28.2 °F 29.5 °F 72% 29.73 in 10.0 mi North 18.4 mph 24.2 mph N/A   Overcast
4:15 PM 37.9 °F 28.9 °F 29.1 °F 71% 29.74 in 10.0 mi North 16.1 mph 24.2 mph N/A   Overcast
4:34 PM 38.5 °F 28.9 °F 27.9 °F 66% 29.75 in 10.0 mi North 18.4 mph 25.3 mph N/A   Overcast
4:54 PM 38.1 °F 29.5 °F 28.6 °F 69% 29.75 in 10.0 mi NNE 15.0 mph - N/A   Overcast
5:15 PM 37.0 °F 28.5 °F 28.9 °F 73% 29.77 in 10.0 mi NNE 13.8 mph 20.7 mph N/A   Overcast
5:34 PM 36.5 °F 28.7 °F 28.9 °F 74% 29.78 in 10.0 mi NNE 11.5 mph 23.0 mph N/A   Overcast
5:54 PM 36.5 °F 29.2 °F 29.3 °F 75% 29.78 in 10.0 mi North 10.4 mph 21.9 mph N/A   Overcast
6:15 PM 36.7 °F 28.0 °F 28.4 °F 72% 29.79 in 10.0 mi North 13.8 mph 23.0 mph N/A   Overcast
6:34 PM 37.0 °F 28.1 °F 28.2 °F 70% 29.80 in 10.0 mi NNE 15.0 mph 21.9 mph N/A   Overcast
6:54 PM 36.7 °F 28.9 °F 28.8 °F 73% 29.81 in 10.0 mi NNE 11.5 mph 17.3 mph N/A   Overcast
7:14 PM 36.3 °F 30.1 °F 28.4 °F 73% 29.82 in 10.0 mi NNE 8.1 mph - N/A   Overcast
7:34 PM 36.0 °F 28.5 °F 28.0 °F 73% 29.83 in 10.0 mi North 10.4 mph - N/A   Overcast
7:55 PM 35.8 °F 29.4 °F 27.5 °F 72% 29.84 in 10.0 mi NNE 8.1 mph - N/A   Overcast
8:14 PM 35.6 °F 29.9 °F 27.5 °F 72% 29.84 in 10.0 mi North 6.9 mph - N/A   Overcast
8:34 PM 35.1 °F 28.6 °F 28.0 °F 76% 29.85 in 10.0 mi North 8.1 mph - N/A   Overcast
8:55 PM 35.1 °F 27.9 °F 27.5 °F 74% 29.86 in 10.0 mi North 9.2 mph - N/A   Overcast
9:14 PM 35.1 °F 28.6 °F 27.5 °F 74% 29.87 in 10.0 mi North 8.1 mph - N/A   Overcast
9:34 PM 35.1 °F 29.3 °F 27.5 °F 74% 29.88 in 10.0 mi North 6.9 mph - N/A   Overcast
9:54 PM 34.9 °F 30.8 °F 27.3 °F 74% 29.88 in 10.0 mi North 4.6 mph - N/A   Overcast
10:14 PM 34.3 °F 29.2 °F 28.0 °F 78% 29.89 in 10.0 mi North 5.8 mph - N/A   Overcast
10:35 PM 34.7 °F 31.8 °F 28.0 °F 77% 29.89 in 10.0 mi NNW 3.5 mph - N/A   Overcast
10:54 PM 34.7 °F 29.6 °F 27.5 °F 75% 29.89 in 10.0 mi NNW 5.8 mph - N/A   Overcast
11:14 PM 34.7 °F 28.8 °F 27.7 °F 76% 29.90 in 10.0 mi NNW 6.9 mph - N/A   Overcast
11:35 PM 34.7 °F 28.8 °F 27.5 °F 75% 29.90 in 10.0 mi NNW 6.9 mph - N/A   Overcast
11:54 PM 34.2 °F 29.0 °F 27.7 °F 77% 29.90 in 10.0 mi NNW 5.8 mph - N/A   Overcast